Location: Pittman
(37.9557°N, 80.9209°W)
Time: 14:07:23
(UTC+00:00)

Envisat - Pass Details

Date: 18 April 2026
Orbit: 761 x 762 km, 98.4° (Epoch: 15 May)

Event Time Altitude Azimuth Distance (km) Brightness Sun altitude
Rises 09:27:20 0° 352° (N) 3,230 6.5 -15.0°
Reaches altitude 10° 09:30:43 10° 328° (NNW) 2,299 5.4 -14.4°
Maximum altitude 09:33:14 14° 298° (WNW) 2,031 4.9 -13.9°
Enters shadow 09:34:28 13° 282° (WNW) 2,095 4.8 -13.7°
